Lid_Strength_Index
2 2 3 3 2 2 2 2 2 2 2 2 3 3 4 4 5 7 12 10 10 15 13 12 12 14 15 16 19 17 17 17 20 23 24 23 24 20 21 18 16 16 16 17 21 23 21 13 12 14 12 13 14 14
2 2 3 3 2 2 2 2 2 2 3 2 3 3 4 4 5 7 12 10 10 13 14 11 11 11 12 13 16 16 15 19 15 21 22 23 23 23 23 24 14 17 14 16 15 15 12 12 12 12 12 13 13 13
3 3 3 3 3 2 2 2 2 2 3 3 3 3 3 4 5 7 12 11 13 16 15 14 14 10 8 10 10 18 16 12 13 14 19 22 23 17 24 22 18 15 14 15 14 12 12 12 12 12 12 12 13 13
3 3 3 3 3 3 2 3 2 3 3 3 3 3 3 4 5 7 11 11 12 16 20 18 10 11 9 9 10 10 12 12 12 15 19 24 25 16 19 17 18 17 15 18 16 13 13 12 13 12 13 13 13 13
3 3 3 3 3 3 3 3 3 3 3 3 3 3 4 5 6 9 11 10 11 13 19 18 13 11 10 10 11 10 11 12 13 20 23 23 18 19 19 20 21 18 17 16 16 14 13 13 14 13 13 13 13 13
3 3 3 3 3 3 3 3 3 3 3 3 3 4 4 6 8 10 14 12 11 12 18 22 15 13 12 11 11 12 12 13 13 15 16 14 15 19 22 23 18 17 16 16 16 16 15 15 15 16 15 16 16 15
3 3 4 3 3 3 3 3 3 3 3 3 3 4 5 6 12 13 14 12 9 12 18 21 19 14 12 12 13 13 13 15 15 16 19 16 17 18 18 23 17 17 17 16 16 15 15 15 16 15 15 17 19 20
3 4 4 3 4 3 3 3 3 3 3 3 4 5 6 8 10 14 13 8 11 15 18 23 24 20 15 15 16 13 15 15 17 17 17 18 18 18 22 20 20 20 19 20 19 21 19 19 20 21 22 21 20 20
3 3 3 4 4 3 3 3 3 4 4 4 5 7 11 14 17 17 8 10 13 15 21 25 23 25 15 15 14 15 14 18 18 24 19 23 26 23 21 22 25 23 21 20 26 27 26 23 25 26 26 24 22 22
6 3 3 4 3 3 3 3 3 4 5 6 10 16 20 18 10 10 15 18 17 19 22 23 25 24 17 16 17 16 19 19 28 26 22 22 25 23 21 21 22 24 25 27 22 22 24 24 26 26 25 27 25 24
7 4 4 4 3 3 3 3 4 6 7 13 19 18 15 10 15 22 23 21 22 20 23 25 24 21 17 23 20 17 26 23 29 27 28 34 26 21 23 25 26 28 29 25 27 28 28 25 25 26 26 29 29 27
7 5 4 3 3 3 4 4 6 8 13 13 15 14 16 18 22 23 28 28 24 20 24 21 21 21 20 21 24 24 28 29 27 33 30 30 22 22 26 25 27 30 31 30 31 27 29 29 30 30 28 28 27 27
7 5 3 3 3 4 4 5 5 8 9 12 14 17 17 20 25 24 26 28 28 22 23 21 23 22 24 22 27 27 28 27 33 32 27 23 22 24 26 30 29 34 34 33 30 31 32 30 32 31 28 31 30 26
8 5 3 3 4 4 5 5 7 7 12 14 17 22 19 25 24 25 24 22 20 20 20 22 22 23 28 25 27 26 30 31 31 29 25 23 23 24 28 31 31 28 32 31 30 31 30 29 29 31 31 30 24 24
7 5 3 4 4 5 5 7 6 9 12 14 17 20 24 25 30 32 29 22 22 17 21 24 26 23 31 27 30 30 29 29 27 23 23 22 24 27 27 29 30 29 30 29 30 29 29 29 28 29 31 32 27 28
7 4 4 4 5 5 6 6 10 12 12 14 21 23 29 24 30 30 27 22 20 18 22 24 30 29 29 28 28 27 26 25 22 25 23 26 27 28 28 29 28 29 29 28 29 29 29 28 27 29 31 29 30 28
8 8 3 4 5 6 6 10 11 11 12 16 23 29 24 21 18 22 21 19 17 19 24 25 25 25 29 31 28 27 23 21 23 24 28 28 25 26 28 28 28 27 25 24 29 30 31 33 32 28 24 30 28 27
10 5 4 5 6 7 11 11 12 13 15 20 21 24 27 23 21 21 20 17 17 19 22 22 25 29 27 26 25 22 23 26 29 27 26 27 28 29 26 24 25 24 26 29 29 31 31 27 24 26 27 29 26 26
9 4 5 6 8 11 12 12 12 20 25 25 24 24 24 22 21 17 17 16 19 18 21 26 26 26 24 24 21 24 25 23 21 22 25 28 27 25 25 26 25 27 26 27 28 26 28 28 25 25 25 27 25 28
8 5 6 6 7 12 15 16 14 18 21 22 24 24 23 21 19 16 16 20 20 21 23 24 22 19 19 18 17 18 20 21 21 23 23 24 27 26 24 23 23 25 27 30 29 28 26 25 28 27 26 24 23 25
8 6 6 7 11 12 14 16 19 18 22 25 24 22 22 20 19 19 20 22 23 25 23 21 18 19 21 23 24 25 23 20 20 18 19 22 26 24 25 28 28 29 28 26 24 28 26 25 25 25 23 24 25 25
9 6 8 10 13 14 16 18 20 20 20 23 23 23 22 22 21 20 20 25 24 20 19 19 19 20 23 22 22 24 21 22 24 24 23 21 23 25 27 25 24 24 26 25 25 23 26 26 25 24 25 26 26 26
6 8 11 13 15 16 18 17 18 19 21 19 21 22 24 24 23 20 24 25 21 17 17 20 21 25 21 27 26 25 23 21 22 24 23 25 26 24 22 22 23 22 23 26 25 23 23 23 24 25 26 26 26 27
8 12 14 16 16 19 17 19 19 20 20 21 21 25 26 22 23 24 24 23 18 19 18 19 19 21 22 22 22 19 22 23 23 26 26 22 22 26 25 21 23 26 24 22 23 23 24 25 25 25 25 26 27 28
13 15 16 19 17 18 20 23 25 25 24 24 26 27 25 23 26 25 23 19 19 19 19 19 19 19 18 20 24 23 24 20 20 20 22 23 25 25 27 29 29 27 22 22 24 24 25 24 24 25 26 26 28 29
16 15 16 17 17 19 22 23 26 29 28 30 28 28 29 26 25 21 22 18 18 17 19 18 17 19 22 21 22 22 19 23 21 21 24 20 19 19 20 20 23 24 26 21 22 23 23 24 24 25 27 27 28 29
16 17 16 16 19 22 25 26 27 24 28 26 28 30 27 24 21 20 22 23 21 29 30 29 22 17 17 20 29 32 29 23 23 23 26 29 31 30 19 18 19 20 21 21 21 22 22 23 24 26 27 28 29 28
23 22 17 21 22 23 23 25 23 22 26 28 24 26 22 20 19 23 29 29 31 33 31 29 29 27 26 25 26 27 28 27 27 26 25 26 28 29 29 25 22 19 21 21 21 21 21 23 25 26 27 29 31 32
24 26 26 26 27 29 33 27 27 32 33 22 23 25 23 34 36 35 32 32 31 31 31 28 29 28 29 29 29 29 25 22 22 22 24 25 24 24 28 26 24 23 22 22 21 22 23 24 26 27 29 30 32 33
27 28 28 30 27 32 37 38 38 39 39 38 37 36 36 37 36 33 33 32 31 30 31 30 30 29 27 26 29 29 33 36 33 22 19 22 23 26 27 25 25 24 24 23 24 24 24 27 27 30 31 31 32 34
29 31 30 31 33 34 35 36 39 40 39 38 39 34 37 37 35 36 36 37 35 33 32 31 30 31 29 27 27 27 26 31 35 34 31 24 25 26 26 25 24 24 24 26 27 27 28 28 29 30 31 33 34 35
28 32 29 29 30 32 35 35 35 33 36 35 36 38 38 36 35 38 38 38 35 34 34 35 32 32 35 35 34 34 31 29 31 30 26 25 26 26 26 26 26 26 26 27 27 28 28 29 30 31 32 35 36 36
27 31 35 30 31 30 32 31 30 32 32 36 39 42 40 36 31 37 37 39 38 37 36 36 36 36 35 35 35 33 31 30 28 24 25 25 26 26 26 26 26 27 27 27 28 28 29 30 31 33 34 36 36 38